Location: Favalello
(42.2939°N, 9.2706°E)
Time: 19:38:44
(UTC+00:00)

Cosmos 1400 Rocket - Pass Details

Date: 06 December 2019
Orbit: 521 x 569 km, 81.2° (Epoch: 18 January)

Event Time Altitude Azimuth Distance (km) Brightness Sun altitude
Rises 16:13:51 0° 203° (SSW) 2,754 7.3 -4.6°
Reaches altitude 10° 16:16:06 10° 209° (SSW) 1,859 6.5 -5.0°
Maximum altitude 16:20:03 45° 283° (WNW) 770 4.0 -5.7°
Drops below altitude 10° 16:23:59 10° 358° (N) 1,854 5.3 -6.3°
Sets 16:26:14 0° 4° (N) 2,747 6.1 -6.7°
